Time,TemperatureF,DewpointF,PressureIn,WindDirection,WindDirectionDegrees,WindSpeedMPH,WindSpeedGustMPH,Humidity,HourlyPrecipIn,Conditions,Clouds,dailyrainin,SoftwareType,DateUTC
2013-03-24 00:02:00,56.0,49.0,29.87,NW,309,17.0,17.0,78,0.00,,,0.00,,2013-03-24 05:02:00,
2013-03-24 00:12:00,56.0,49.0,29.87,NW,309,17.0,17.0,78,0.00,,,0.00,,2013-03-24 05:12:00,
2013-03-24 00:22:00,55.0,49.0,29.88,NNW,343,17.0,17.0,80,0.00,,,0.00,,2013-03-24 05:22:00,
2013-03-24 00:32:00,54.0,48.0,29.90,North,349,20.0,23.0,80,0.00,,,0.00,,2013-03-24 05:32:00,
2013-03-24 00:42:00,54.0,48.0,29.90,North,349,20.0,23.0,80,0.00,,,0.00,,2013-03-24 05:42:00,
2013-03-24 00:52:00,54.0,48.0,29.93,NNW,347,26.0,29.0,80,0.00,,,0.00,,2013-03-24 05:52:00,
2013-03-24 01:02:00,53.0,48.0,29.94,NNW,342,21.0,21.0,82,0.00,,,0.00,,2013-03-24 06:02:00,
2013-03-24 01:12:00,53.0,48.0,29.94,NNW,342,21.0,21.0,82,0.00,,,0.00,,2013-03-24 06:12:00,
2013-03-24 01:22:00,52.0,46.0,29.96,North,4,21.0,21.0,80,0.00,,,0.00,,2013-03-24 06:22:00,
2013-03-24 01:32:00,51.0,46.0,29.97,North,6,19.0,19.0,82,0.00,,,0.00,,2013-03-24 06:32:00,
2013-03-24 01:42:00,51.0,46.0,29.97,North,6,19.0,19.0,82,0.00,,,0.00,,2013-03-24 06:42:00,
2013-03-24 01:52:00,51.0,46.0,29.99,North,349,23.0,24.0,83,0.00,,,0.00,,2013-03-24 06:52:00,
2013-03-24 02:02:00,48.0,44.0,30.02,NNW,335,23.0,24.0,86,0.00,,,0.00,,2013-03-24 07:02:00,
2013-03-24 02:12:00,48.0,44.0,30.02,NNW,335,23.0,24.0,86,0.00,,,0.00,,2013-03-24 07:12:00,
2013-03-24 02:22:00,46.0,42.0,30.03,NW,326,25.0,28.0,86,0.00,,,0.00,,2013-03-24 07:22:00,
2013-03-24 02:32:00,45.0,40.0,30.03,NW,325,19.0,19.0,82,0.00,,,0.00,,2013-03-24 07:32:00,
2013-03-24 02:42:00,45.0,40.0,30.03,NW,325,19.0,19.0,82,0.00,,,0.00,,2013-03-24 07:42:00,
2013-03-24 02:52:00,45.0,39.0,30.05,WNW,302,22.0,23.0,80,0.00,,,0.00,,2013-03-24 07:52:00,
2013-03-24 03:03:00,44.0,37.0,30.07,NW,319,18.0,23.0,76,0.00,,,0.00,,2013-03-24 08:03:00,
2013-03-24 03:12:00,44.0,37.0,30.07,NW,319,18.0,23.0,76,0.00,,,0.00,,2013-03-24 08:12:00,
2013-03-24 03:22:00,43.0,35.0,30.10,NW,321,17.0,23.0,73,0.00,,,0.00,,2013-03-24 08:22:00,
2013-03-24 03:32:00,41.0,33.0,30.11,NNW,333,19.0,19.0,73,0.00,,,0.00,,2013-03-24 08:32:00,
2013-03-24 03:42:00,41.0,33.0,30.11,NNW,333,19.0,19.0,73,0.00,,,0.00,,2013-03-24 08:42:00,
2013-03-24 03:52:00,40.0,33.0,30.11,NW,305,14.0,14.0,75,0.00,,,0.00,,2013-03-24 08:52:00,
2013-03-24 04:02:00,39.0,32.0,30.11,NW,316,16.0,17.0,75,0.00,,,0.00,,2013-03-24 09:02:00,
2013-03-24 04:12:00,39.0,32.0,30.11,NW,316,16.0,17.0,75,0.00,,,0.00,,2013-03-24 09:12:00,
2013-03-24 04:22:00,38.0,29.0,30.13,NW,314,14.0,14.0,71,0.00,,,0.00,,2013-03-24 09:22:00,
2013-03-24 04:33:00,38.0,28.0,30.13,NW,326,14.0,14.0,68,0.00,,,0.00,,2013-03-24 09:33:00,
2013-03-24 04:42:00,38.0,28.0,30.13,NW,326,14.0,14.0,68,0.00,,,0.00,,2013-03-24 09:42:00,
2013-03-24 04:52:00,37.0,28.0,30.15,WNW,302,16.0,16.0,71,0.00,,,0.00,,2013-03-24 09:52:00,
2013-03-24 05:02:00,37.0,29.0,30.14,NW,309,10.0,13.0,73,0.00,,,0.00,,2013-03-24 10:02:00,
2013-03-24 05:12:00,37.0,29.0,30.14,NW,309,10.0,13.0,73,0.00,,,0.00,,2013-03-24 10:12:00,
2013-03-24 05:22:00,37.0,29.0,30.15,NNW,335,8.0,8.0,74,0.00,,,0.00,,2013-03-24 10:22:00,
2013-03-24 05:32:00,36.0,29.0,30.16,NW,314,7.0,9.0,76,0.00,,,0.00,,2013-03-24 10:32:00,
2013-03-24 05:42:00,36.0,29.0,30.16,NW,314,7.0,9.0,76,0.00,,,0.00,,2013-03-24 10:42:00,
2013-03-24 05:52:00,35.0,28.0,30.17,NW,309,13.0,13.0,76,0.00,,,0.00,,2013-03-24 10:52:00,
2013-03-24 06:03:00,36.0,28.0,30.17,NW,309,16.0,17.0,72,0.00,,,0.00,,2013-03-24 11:03:00,
2013-03-24 06:12:00,36.0,28.0,30.17,NW,309,16.0,17.0,72,0.00,,,0.00,,2013-03-24 11:12:00,
2013-03-24 06:22:00,36.0,27.0,30.19,NNW,333,13.0,16.0,70,0.00,,,0.00,,2013-03-24 11:22:00,
2013-03-24 06:32:00,35.0,27.0,30.19,NW,314,14.0,14.0,71,0.00,,,0.00,,2013-03-24 11:32:00,
2013-03-24 06:42:00,35.0,27.0,30.19,NW,314,14.0,14.0,71,0.00,,,0.00,,2013-03-24 11:42:00,
2013-03-24 06:52:00,35.0,27.0,30.19,NNW,332,14.0,14.0,71,0.00,,,0.00,,2013-03-24 11:52:00,
2013-03-24 07:02:00,34.0,26.0,30.21,NW,316,8.0,9.0,73,0.00,,,0.00,,2013-03-24 12:02:00,
2013-03-24 07:12:00,34.0,26.0,30.21,NW,316,8.0,9.0,73,0.00,,,0.00,,2013-03-24 12:12:00,
2013-03-24 07:22:00,34.0,26.0,30.22,NNW,332,9.0,9.0,73,0.00,,,0.00,,2013-03-24 12:22:00,
2013-03-24 07:32:00,34.0,26.0,30.23,NW,321,14.0,14.0,72,0.00,,,0.00,,2013-03-24 12:32:00,
2013-03-24 07:42:00,34.0,26.0,30.23,NW,321,14.0,14.0,72,0.00,,,0.00,,2013-03-24 12:42:00,
2013-03-24 07:52:00,33.0,26.0,30.23,NW,316,10.0,10.0,74,0.00,,,0.00,,2013-03-24 12:52:00,
2013-03-24 08:02:00,32.0,25.0,30.24,NNW,335,7.0,8.0,76,0.00,,,0.00,,2013-03-24 13:02:00,
2013-03-24 08:12:00,32.0,25.0,30.24,NNW,335,7.0,8.0,76,0.00,,,0.00,,2013-03-24 13:12:00,
2013-03-24 08:22:00,33.0,26.0,30.25,NW,311,11.0,12.0,75,0.00,,,0.00,,2013-03-24 13:22:00,
2013-03-24 08:32:00,35.0,27.0,30.26,WNW,295,10.0,10.0,72,0.00,,,0.00,,2013-03-24 13:32:00,
2013-03-24 08:42:00,35.0,27.0,30.26,WNW,295,10.0,10.0,72,0.00,,,0.00,,2013-03-24 13:42:00,
2013-03-24 08:52:00,36.0,27.0,30.26,NW,305,12.0,14.0,70,0.00,,,0.00,,2013-03-24 13:52:00,
2013-03-24 09:02:00,37.0,27.0,30.26,WNW,302,12.0,16.0,68,0.00,,,0.00,,2013-03-24 14:02:00,
2013-03-24 09:12:00,37.0,27.0,30.26,WNW,302,12.0,16.0,68,0.00,,,0.00,,2013-03-24 14:12:00,
2013-03-24 09:22:00,37.0,27.0,30.27,WNW,300,15.0,15.0,66,0.00,,,0.00,,2013-03-24 14:22:00,
2013-03-24 09:32:00,37.0,26.0,30.27,WNW,302,16.0,16.0,65,0.00,,,0.00,,2013-03-24 14:32:00,
2013-03-24 09:42:00,37.0,26.0,30.27,WNW,302,16.0,16.0,65,0.00,,,0.00,,2013-03-24 14:42:00,
2013-03-24 09:52:00,38.0,27.0,30.27,NW,308,19.0,23.0,63,0.00,,,0.00,,2013-03-24 14:52:00,
2013-03-24 10:02:00,39.0,27.0,30.28,NW,308,14.0,20.0,62,0.00,,,0.00,,2013-03-24 15:02:00,
2013-03-24 10:12:00,39.0,27.0,30.28,NW,308,14.0,20.0,62,0.00,,,0.00,,2013-03-24 15:12:00,
2013-03-24 10:22:00,39.0,26.0,30.29,NW,308,19.0,19.0,60,0.00,,,0.00,,2013-03-24 15:22:00,
2013-03-24 10:33:00,40.0,27.0,30.29,NW,309,17.0,19.0,59,0.00,,,0.00,,2013-03-24 15:33:00,
2013-03-24 10:43:00,40.0,27.0,30.29,NW,309,17.0,19.0,59,0.00,,,0.00,,2013-03-24 15:43:00,
2013-03-24 10:53:00,41.0,27.0,30.28,NW,325,16.0,16.0,58,0.00,,,0.00,,2013-03-24 15:53:00,
2013-03-24 11:02:00,42.0,27.0,30.29,NW,319,16.0,17.0,55,0.00,,,0.00,,2013-03-24 16:02:00,
2013-03-24 11:12:00,42.0,27.0,30.29,NW,319,16.0,17.0,55,0.00,,,0.00,,2013-03-24 16:12:00,
2013-03-24 11:22:00,42.0,27.0,30.29,WNW,302,13.0,18.0,55,0.00,,,0.00,,2013-03-24 16:22:00,
2013-03-24 11:33:00,43.0,27.0,30.29,NW,321,15.0,17.0,53,0.00,,,0.00,,2013-03-24 16:33:00,
2013-03-24 11:42:00,43.0,27.0,30.29,NW,321,15.0,17.0,53,0.00,,,0.00,,2013-03-24 16:42:00,
2013-03-24 11:52:00,43.0,27.0,30.28,NNE,13,14.0,14.0,52,0.00,,,0.00,,2013-03-24 16:52:00,
2013-03-24 12:02:00,45.0,27.0,30.27,NW,321,14.0,14.0,50,0.00,,,0.00,,2013-03-24 17:02:00,
2013-03-24 12:12:00,45.0,27.0,30.27,NW,321,14.0,14.0,50,0.00,,,0.00,,2013-03-24 17:12:00,
2013-03-24 12:22:00,45.0,27.0,30.27,NW,304,17.0,17.0,50,0.00,,,0.00,,2013-03-24 17:22:00,
2013-03-24 12:32:00,46.0,28.0,30.26,NNW,328,16.0,16.0,49,0.00,,,0.00,,2013-03-24 17:32:00,
2013-03-24 12:42:00,46.0,28.0,30.26,NNW,328,16.0,16.0,49,0.00,,,0.00,,2013-03-24 17:42:00,
2013-03-24 12:52:00,47.0,28.0,30.26,NW,325,18.0,21.0,47,0.00,,,0.00,,2013-03-24 17:52:00,
2013-03-24 13:03:00,47.0,27.0,30.25,WNW,302,14.0,14.0,46,0.00,,,0.00,,2013-03-24 18:03:00,
2013-03-24 13:12:00,47.0,27.0,30.25,WNW,302,14.0,14.0,46,0.00,,,0.00,,2013-03-24 18:12:00,
2013-03-24 13:22:00,48.0,29.0,30.23,NNW,343,12.0,16.0,47,0.00,,,0.00,,2013-03-24 18:22:00,
2013-03-24 13:32:00,48.0,28.0,30.23,WNW,285,13.0,13.0,45,0.00,,,0.00,,2013-03-24 18:32:00,
2013-03-24 13:43:00,48.0,28.0,30.23,WNW,285,13.0,13.0,45,0.00,,,0.00,,2013-03-24 18:43:00,
2013-03-24 13:52:00,49.0,27.0,30.22,NW,309,17.0,18.0,43,0.00,,,0.00,,2013-03-24 18:52:00,
2013-03-24 14:02:00,51.0,29.0,30.20,NNW,332,13.0,13.0,43,0.00,,,0.00,,2013-03-24 19:02:00,
2013-03-24 14:12:00,51.0,29.0,30.20,NNW,332,13.0,13.0,43,0.00,,,0.00,,2013-03-24 19:12:00,
2013-03-24 14:22:00,51.0,28.0,30.19,WNW,293,14.0,15.0,41,0.00,,,0.00,,2013-03-24 19:22:00,
2013-03-24 14:32:00,52.0,29.0,30.18,NNW,339,14.0,14.0,41,0.00,,,0.00,,2013-03-24 19:32:00,
2013-03-24 14:42:00,52.0,29.0,30.18,NNW,339,14.0,14.0,41,0.00,,,0.00,,2013-03-24 19:42:00,
2013-03-24 14:53:00,52.0,28.0,30.17,NNW,329,10.0,15.0,39,0.00,,,0.00,,2013-03-24 19:53:00,
2013-03-24 15:02:00,52.0,28.0,30.16,NNW,335,15.0,17.0,40,0.00,,,0.00,,2013-03-24 20:02:00,
2013-03-24 15:12:00,52.0,28.0,30.16,NNW,335,15.0,17.0,40,0.00,,,0.00,,2013-03-24 20:12:00,
2013-03-24 15:22:00,53.0,29.0,30.15,WNW,302,8.0,9.0,39,0.00,,,0.00,,2013-03-24 20:22:00,
2013-03-24 15:32:00,54.0,28.0,30.14,NW,315,12.0,12.0,37,0.00,,,0.00,,2013-03-24 20:32:00,
2013-03-24 15:42:00,54.0,28.0,30.14,NW,315,12.0,12.0,37,0.00,,,0.00,,2013-03-24 20:42:00,
2013-03-24 15:53:00,54.0,28.0,30.12,NW,322,10.0,12.0,37,0.00,,,0.00,,2013-03-24 20:53:00,
2013-03-24 16:02:00,54.0,28.0,30.11,NW,304,10.0,12.0,36,0.00,,,0.00,,2013-03-24 21:02:00,
2013-03-24 16:12:00,54.0,28.0,30.11,NW,304,10.0,12.0,36,0.00,,,0.00,,2013-03-24 21:12:00,
2013-03-24 16:22:00,54.0,28.0,30.11,West,276,12.0,12.0,37,0.00,,,0.00,,2013-03-24 21:22:00,
2013-03-24 16:33:00,54.0,26.0,30.10,NNW,335,16.0,16.0,34,0.00,,,0.00,,2013-03-24 21:33:00,
2013-03-24 16:43:00,54.0,26.0,30.10,NNW,335,16.0,16.0,34,0.00,,,0.00,,2013-03-24 21:43:00,
2013-03-24 16:53:00,54.0,27.0,30.09,NW,323,10.0,15.0,35,0.00,,,0.00,,2013-03-24 21:53:00,
2013-03-24 17:02:00,55.0,27.0,30.08,NW,318,11.0,11.0,34,0.00,,,0.00,,2013-03-24 22:02:00,
2013-03-24 17:13:00,55.0,27.0,30.07,NNW,340,16.0,16.0,34,0.00,,,0.00,,2013-03-24 22:13:00,
2013-03-24 17:23:00,55.0,27.0,30.07,NNW,340,16.0,16.0,34,0.00,,,0.00,,2013-03-24 22:23:00,
2013-03-24 17:33:00,55.0,26.0,30.06,NW,319,13.0,16.0,33,0.00,,,0.00,,2013-03-24 22:33:00,
2013-03-24 17:42:00,55.0,26.0,30.06,NW,319,13.0,16.0,33,0.00,,,0.00,,2013-03-24 22:42:00,
2013-03-24 17:52:00,54.0,25.0,30.06,NNW,335,15.0,15.0,32,0.00,,,0.00,,2013-03-24 22:52:00,
2013-03-24 18:02:00,54.0,26.0,30.06,North,353,8.0,8.0,34,0.00,,,0.00,,2013-03-24 23:02:00,
2013-03-24 18:12:00,54.0,26.0,30.06,North,353,8.0,8.0,34,0.00,,,0.00,,2013-03-24 23:12:00,
2013-03-24 18:22:00,54.0,26.0,30.06,NNW,328,10.0,12.0,33,0.00,,,0.00,,2013-03-24 23:22:00,
2013-03-24 18:32:00,54.0,26.0,30.06,NNE,23,9.0,9.0,34,0.00,,,0.00,,2013-03-24 23:32:00,
2013-03-24 18:42:00,54.0,26.0,30.06,NNE,23,9.0,9.0,34,0.00,,,0.00,,2013-03-24 23:42:00,
2013-03-24 18:53:00,54.0,26.0,30.06,NE,41,10.0,10.0,34,0.00,,,0.00,,2013-03-24 23:53:00,
2013-03-24 19:02:00,53.0,26.0,30.06,NE,35,7.0,9.0,35,0.00,,,0.00,,2013-03-25 00:02:00,
2013-03-24 19:12:00,53.0,26.0,30.06,NE,35,7.0,9.0,35,0.00,,,0.00,,2013-03-25 00:12:00,
2013-03-24 19:22:00,53.0,26.0,30.06,NE,34,8.0,11.0,35,0.00,,,0.00,,2013-03-25 00:22:00,
2013-03-24 19:32:00,52.0,26.0,30.06,North,7,10.0,12.0,36,0.00,,,0.00,,2013-03-25 00:32:00,
2013-03-24 19:42:00,52.0,26.0,30.06,North,7,10.0,12.0,36,0.00,,,0.00,,2013-03-25 00:42:00,
2013-03-24 19:53:00,51.0,26.0,30.06,North,6,12.0,13.0,38,0.00,,,0.00,,2013-03-25 00:53:00,
2013-03-24 20:02:00,50.0,26.0,30.07,North,356,10.0,11.0,39,0.00,,,0.00,,2013-03-25 01:02:00,
2013-03-24 20:12:00,50.0,26.0,30.07,North,356,10.0,11.0,39,0.00,,,0.00,,2013-03-25 01:12:00,
2013-03-24 20:22:00,48.0,25.0,30.08,East,94,6.0,7.0,41,0.00,,,0.00,,2013-03-25 01:22:00,
2013-03-24 20:32:00,47.0,25.0,30.09,NNE,32,6.0,6.0,42,0.00,,,0.00,,2013-03-25 01:32:00,
2013-03-24 20:42:00,47.0,25.0,30.09,NNE,32,6.0,6.0,42,0.00,,,0.00,,2013-03-25 01:42:00,
2013-03-24 20:52:00,46.0,25.0,30.10,NE,56,6.0,6.0,43,0.00,,,0.00,,2013-03-25 01:52:00,
2013-03-24 21:02:00,46.0,25.0,30.10,ENE,63,5.0,5.0,44,0.00,,,0.00,,2013-03-25 02:02:00,
2013-03-24 21:12:00,46.0,25.0,30.10,ENE,63,5.0,5.0,44,0.00,,,0.00,,2013-03-25 02:12:00,
2013-03-24 21:22:00,45.0,25.0,30.11,NE,45,5.0,5.0,45,0.00,,,0.00,,2013-03-25 02:22:00,
2013-03-24 21:32:00,44.0,25.0,30.12,NNE,28,5.0,6.0,46,0.00,,,0.00,,2013-03-25 02:32:00,
2013-03-24 21:42:00,44.0,25.0,30.12,NNE,28,5.0,6.0,46,0.00,,,0.00,,2013-03-25 02:42:00,
2013-03-24 21:52:00,43.0,24.0,30.13,NE,45,6.0,6.0,46,0.00,,,0.00,,2013-03-25 02:52:00,
2013-03-24 22:02:00,43.0,24.0,30.13,NE,39,5.0,5.0,47,0.00,,,0.00,,2013-03-25 03:02:00,
2013-03-24 22:12:00,43.0,24.0,30.13,NE,39,5.0,5.0,47,0.00,,,0.00,,2013-03-25 03:12:00,
2013-03-24 22:22:00,42.0,23.0,30.14,ENE,77,6.0,6.0,47,0.00,,,0.00,,2013-03-25 03:22:00,
2013-03-24 22:33:00,42.0,24.0,30.15,ENE,77,6.0,6.0,48,0.00,,,0.00,,2013-03-25 03:33:00,
2013-03-24 22:42:00,39.0,23.0,30.15,NE,51,6.0,8.0,52,0.00,,,0.00,,2013-03-25 03:42:00,
2013-03-24 22:53:00,39.0,23.0,30.15,NE,51,6.0,8.0,52,0.00,,,0.00,,2013-03-25 03:53:00,
2013-03-24 23:02:00,38.0,22.0,30.15,ENE,62,5.0,6.0,53,0.00,,,0.00,,2013-03-25 04:02:00,
2013-03-24 23:12:00,38.0,22.0,30.15,ENE,62,5.0,6.0,53,0.00,,,0.00,,2013-03-25 04:12:00,
2013-03-24 23:22:00,38.0,23.0,30.16,East,90,6.0,7.0,55,0.00,,,0.00,,2013-03-25 04:22:00,
2013-03-24 23:32:00,37.0,23.0,30.16,ENE,63,6.0,6.0,56,0.00,,,0.00,,2013-03-25 04:32:00,
2013-03-24 23:42:00,37.0,23.0,30.16,ENE,63,6.0,6.0,56,0.00,,,0.00,,2013-03-25 04:42:00,
2013-03-24 23:52:00,36.0,23.0,30.17,East,86,5.0,5.0,58,0.00,,,0.00,,2013-03-25 04:52:00,